Weather Roundup
Issued by NWS Chicago, IL

Home | Current Version | Previous Version | Text Only | Print | Product List | Glossary On
Versions: 1 2 3 4 5 6 7 8 9 10 11 12 13 14 15 16 17 18 19 20 21 22 23 24 25 26 27 28 29 30 31 32 33 34 35 36 37 38 39 40 41 42 43 44 45 46 47 48 49 50
000
NZUS59 KLOT 042112
HRRLOT

CHICAGO AREA WEATHER ROUNDUP
NATIONAL WEATHER SERVICE CHICAGO/ROMEOVILLE IL
400 PM CDT SAT JUL 04 2015

NOTE: "FAIR" INDICATES FEW OR NO CLOUDS BELOW 12,000 FEET WITH NO
SIGNIFICANT WEATHER AND/OR OBSTRUCTIONS TO VISIBILITY.

* THESE STATIONS ARE NOT UNDER NWS QUALITY CONTROL. THEY ALSO MAY NOT
  REPORT WEATHER SUCH AS PRECIPITATION OR FOG.

ILZ005-006-012>014-019>023-042200-
NORTHEAST ILLINOIS

CITY           SKY/WX    TMP DP  RH WIND       PRES   REMARKS
OHARE          MOSUNNY   81  53  37 CALM      29.99S HX  80
MIDWAY         MOSUNNY   83  58  42 SW8       29.99S HX  83
AURORA         SUNNY     80  56  43 W8        30.01F HX  80
LANSING*       MOSUNNY   80  55  42 W6        30.00S HX  80
JOLIET*        MOSUNNY   82  59  46 SW5       30.00F HX  82
WAUKEGAN       SUNNY     74  57  55 SE10      29.99F
DUPAGE AIRPORT SUNNY     80  58  46 SW9       30.00S HX  80
WHEELING       SUNNY     81  56  42 VRB6      30.00F HX  81
KANKAKEE*      MOSUNNY   80  60  51 SW3       30.02S HX  81
MORRIS*        SUNNY     80  56  43 W5        29.99F HX  80
LEWIS AIRPORT* PTSUNNY   80  55  41 W10       30.00F HX  80
NORTHERLY IS     N/A     71  59  65 NE2         N/A
$$

WIZ051-052-058>065-066-070>072-042200-
SOUTHEAST WISCONSIN

CITY           SKY/WX    TMP DP  RH WIND       PRES   REMARKS
MILWAUKEE      MOSUNNY   79  61  53 SE14      29.98F HX  80
KENOSHA*       SUNNY     81  60  48 SW5       29.99F HX  82
RACINE*        SUNNY     77  58  51 S10       30.01S
BURLINGTON     SUNNY     78  59  52 SW5       29.99F
WAUKESHA       PTSUNNY   79  59  50 SW6       30.00S HX  80
WEST BEND      CLOUDY    79  59  50 S5        29.98F HX  80
$$

INZ001>003-010>013-019-020-042200-
NORTHWEST INDIANA

CITY           SKY/WX    TMP DP  RH WIND       PRES   REMARKS
GARY*          MOSUNNY  N/A N/A N/A NE6       30.00F
MICHIGAN CITY* NOT AVBL
RENSSELAER*    NOT AVBL
VALPARAISO     MOSUNNY   80  59  48 SW8       30.01F HX  81
$$

LMZ740>746-042200-
SOUTHERN LAKE MICHIGAN

STATION/POSITION TIME  SKY/WX   TEMP WIND        PRES    VSBY
                                AIR  DIR/SP/G
                 (UTC)          (F)  (DEG/KT/KT) (MB)    (MI)
HARRISON CRIB    2000            67   90/  9/ 10   N/A
BURNHAM HARBOR   2100            70   80/  2/  4   N/A
CALUMET HARBOR   2000            71   50/  7/  9   N/A
BURNS HARBOR     2000            71   70/  9/ 10 1016.6F
MICHIGAN CITY    2000            67   20/  6/  7   N/A
$$

ABBREVIATIONS USED IN REMARKS
   TC - TEMPERATURE IN CELSIUS
  WCI - WIND CHILL INDEX
   HX - HEAT INDEX
  VSB - VISIBILITY
$$



USA.gov is the U.S. government's official web portal to all federal, state and local government web resources and services.